Regional Weather Roundup
Issued by NWS

Home | Current Version | Previous Version | Graphics & Text | Print | Product List | Glossary On
Versions: 1 2 3 4 5 6 7 8 9 10 11 12 13 14 15 16 17 18 19 20 21 22 23 24 25 26 27 28 29 30 31 32 33 34 35 36 37 38 39 40 41 42 43 44 45 46 47 48 49 50
000
ASUS43 KBIS 240010
RWRND

NORTH DAKOTA REGIONAL WEATHER ROUNDUP
NATIONAL WEATHER SERVICE BISMARCK ND
700 PM CDT SUN JUL 23 2017

NOTE: "FAIR" INDICATES FEW OR NO CLOUDS BELOW 12,000 FEET WITH NO
SIGNIFICANT WEATHER AND/OR OBSTRUCTIONS TO VISIBILITY.


NDZ001>003-009>011-017-240100-
NORTHWEST NORTH DAKOTA

CITY           SKY/WX    TMP DP  RH WIND       PRES   REMARKS
WILLISTON      SUNNY     93  48  21 SE8       29.88F
6HR MIN TEMP:  84; 6HR MAX TEMP:  94;

MINOT          SUNNY     86  51  29 S8        29.93F
MINOT AFB      SUNNY     84  53  34 SE9       29.92F
$$

NDZ018>021-031>035-040>046-240100-
SOUTHWEST NORTH DAKOTA

CITY           SKY/WX    TMP DP  RH WIND       PRES   REMARKS
BISMARCK       SUNNY     84  55  36 E8        29.96F
6HR MIN TEMP:  78; 6HR MAX TEMP:  85;

DICKINSON      SUNNY     88  52  29 E8        29.93F
GARRISON         N/A     83  51  33 SE9       29.95F
6HR MIN TEMP:  77; 6HR MAX TEMP:  85;

HETTINGER ARPT SUNNY     89  48  24 SE7       29.97F
$$

NDZ004>008-012>016-024-026-027-054-240100-
NORTHEAST NORTH DAKOTA

CITY           SKY/WX    TMP DP  RH WIND       PRES   REMARKS
GRAND FORKS    MOSUNNY   79  63  57 SW5       29.96F
GRND FRKS AFB  SUNNY     76  61  59 S6        29.98F
DEVILS LAKE    SUNNY     76  56  49 SE5       29.99F
$$

NDZ022-023-025-028>030-036>039-047>053-240100-
SOUTHEAST NORTH DAKOTA

CITY           SKY/WX    TMP DP  RH WIND       PRES   REMARKS
FARGO          MOSUNNY   78  62  57 N3        29.97F
6HR MIN TEMP:  70; 6HR MAX TEMP:  79;

JAMESTOWN      SUNNY     78  59  51 NE6       29.98F
$$




USA.gov is the U.S. government's official web portal to all federal, state and local government web resources and services.